Location: Naaman
(32.9537°N, 96.6272°W)
Time: 04:32:43
(UTC+00:00)

Daily predictions for brighter satellites

Satellite Brightness Start Highest point End
(mag) Time Altitude Azimuth Time Altitude Azimuth Time Altitude Azimuth
CZ-3B R/B 4.1 01:17:17 10° WNW 01:21:21 49° SW 01:33:44 10° SSE
CZ-4B R/B 3.8 01:17:26 10° S 01:22:26 72° WSW 01:27:19 10° NNW
SPOT 1/Viking Rocket 4.5 01:18:59 10° SE 01:23:23 29° ENE 01:27:49 10° NNE
APEX 2.6 01:21:28 10° NNW 01:24:38 65° ENE 01:27:33 10° SSE
CZ-4B R/B 4.2 01:23:58 10° SE 01:28:48 30° ENE 01:33:36 10° N
Cosmos 1674 Rocket 3.6 01:27:12 10° N 01:31:36 59° E 01:35:58 10° SSE
Cosmos 1825 3.3 01:29:11 10° NNE 01:31:49 20° ENE 01:34:23 10° SE
USA 234 4.0 01:28:43 10° ESE 01:34:36 37° NE 01:40:30 10° NNW
NOSS 3-1 (C) 3.3 01:30:53 10° S 01:35:04 35° ESE 01:39:43 10° NE
Meteor 2-11 Rocket 4.4 01:30:42 10° N 01:36:48 75° E 01:42:50 10° SSE
Hubble Space Telescope 1.4 01:34:52 10° WSW 01:38:36 39° S 01:41:39 14° ESE
Cosmos 2082 Rocket 3.2 01:33:46 10° NNW 01:39:14 49° WSW 01:44:40 10° S
Resurs 1-3 3.7 01:37:29 10° SSE 01:41:44 56° ENE 01:45:59 10° N
[s.n.70599] 2.3 01:42:06 10° NW 01:44:37 74° NNE 01:46:07 21° ESE
IKONOS-2 4.4 01:45:24 10° NNE 01:49:38 86° ESE 01:53:49 10° SSW
Cosmos 2366 rocket 4.5 01:44:55 10° N 01:50:51 40° E 01:56:45 10° SSE
Okean O Rocket 2.7 01:49:28 17° ESE 01:51:47 26° ENE 01:55:22 10° NNE
Cosmos 1025 Rocket 3.7 01:48:25 10° NNE 01:52:25 35° E 01:55:30 15° SE
ATLAS 3B R/B 3.3 01:50:16 10° S 01:56:15 34° ESE 02:02:36 10° NE
Resurs 01 Rocket 2.5 01:55:01 18° ESE 01:57:24 31° ENE 02:01:16 10° N
YAOGAN 1 4.4 01:53:58 10° SSW 01:57:48 32° W 02:01:39 10° NW
Cosmos 2218 Rocket 4.4 01:52:07 10° N 01:58:12 45° E 02:03:55 11° SSE
Cosmos 1346 Rocket 2.6 01:56:25 10° S 02:00:14 82° E 02:04:04 10° N
SJ-6B 2.9 01:58:06 10° S 02:02:01 77° W 02:05:59 10° NNW
USA 281 4.1 01:59:34 18° ESE 02:03:20 31° ENE 02:08:58 10° N
Cosmos 1975 Rocket 4.1 02:00:57 10° NNE 02:04:29 24° ENE 02:05:12 23° E
Cosmos 1302 Rocket 4.2 01:59:53 10° SSW 02:05:08 76° WNW 02:10:24 10° NNE
Cosmos 1328 3.7 02:06:08 10° N 02:09:52 55° E 02:11:47 26° SSE
OAO 3 Rocket 3.4 02:05:38 10° W 02:10:30 68° N 02:13:29 23° E
Cosmos 1782 Rocket 3.4 02:09:28 10° S 02:13:48 88° E 02:18:12 10° N
Meteor 1-21 Rocket 4.3 02:09:50 10° N 02:15:42 62° E 02:20:11 17° SSE
PAYLOAD B 4.5 02:10:37 10° S 02:16:06 71° WSW 02:21:40 10° NNW
USA 186 1.5 02:16:16 34° SSE 02:17:28 87° ENE 02:20:32 10° N
DELTA 2 R/B (1) 3.5 02:11:54 10° WNW 02:17:32 83° NNE 02:20:22 31° ESE
Cosmos 1892 3.0 02:14:54 10° NNW 02:18:25 58° W 02:21:37 12° S
CZ-4 R/B 2.3 02:18:28 10° S 02:22:18 46° W 02:26:06 10° NNW
ATLAS 5 CENTAUR R/B 0.6 02:19:11 10° SSW 02:22:29 78° ESE 02:25:53 10° NNE
Delta 2 Rocket 4.4 02:17:44 10° WSW 02:24:17 47° S 02:26:51 31° SE
SPOT 5 4.5 02:24:44 21° ENE 02:24:51 21° ENE 02:28:45 10° NNE
Cosmos 1455 3.3 02:23:05 10° SSW 02:26:27 41° W 02:29:51 10° N
Cosmos 864 Rocket 4.4 02:22:15 10° N 02:28:30 83° E 02:34:03 14° S
Cosmos 968 Rocket 3.6 02:23:41 10° NNW 02:28:46 74° WSW 02:32:17 20° S
Feng Yun 1-1 Rocket 4.2 02:28:09 17° SSE 02:32:28 83° WSW 02:38:04 10° NNW
CSL-04 Debris 4.2 02:34:11 21° S 02:37:56 81° WSW 02:43:24 10° NNW
Cosmos 1300 Rocket 4.2 02:36:00 10° SSW 02:40:14 56° W 02:44:33 10° N
CSL-04 Rocket 3.9 02:45:00 24° S 02:48:25 71° WSW 02:53:55 10° NNW
In-Cosmos 22 Rocket 4.0 02:48:02 10° N 02:53:29 81° E 02:54:49 54° SSE
SJ 16-02 1.4 02:49:24 10° NNW 02:53:42 71° WSW 02:54:06 66° SW
OAO 1 Rocket 4.5 02:48:45 10° W 02:54:05 74° N 02:55:16 53° ENE
CZ-4C R/B 4.0 02:53:59 10° N 02:56:35 42° NNW 02:56:35 42° NNW
NOSS 3-1 (A) 2.8 02:57:12 10° SSW 03:01:54 84° WNW 03:07:16 10° NNE
Cosmos 2098 Rocket 4.3 02:57:17 10° SSW 03:02:53 51° W 03:07:31 10° N
MetOp-B 4.4 03:05:02 51° NE 03:05:02 51° NE 03:09:41 10° N
Okean-O 2.8 03:06:02 67° NNW 03:06:02 67° NNW 03:09:53 10° NNW
Terra 3.7 03:09:26 18° NNE 03:09:26 18° NNE 03:11:05 10° NNE
Atlas Centaur 2 4.0 03:04:55 10° SW 03:05:22 12° SW 03:05:22 12° SW
USA 234 3.6 03:15:42 44° S 03:17:22 55° SW 03:23:46 10° NW
Hubble Space Telescope 3.0 03:15:16 10° WSW 03:16:32 18° WSW 03:16:32 18° WSW
Cosmos 1833 4.2 03:14:07 10° NNW 03:19:43 70° WSW 03:19:59 68° SW
IRS-1A Rocket 4.5 03:20:51 62° NE 03:20:51 62° NE 03:26:08 10° N
Okean O Rocket 3.7 03:26:49 19° WSW 03:27:58 21° W 03:31:17 10° NW
Milstar 3 4.4 03:17:24 10° WSW 03:28:08 72° S 03:37:38 37° E
Resurs 01 Rocket 3.9 03:32:30 16° WSW 03:33:49 18° W 03:36:52 10° NW
ATLAS 3B R/B 3.9 03:40:14 10° WSW 03:46:44 42° NW 03:53:44 10° NNE
USA 281 4.0 03:46:26 39° SW 03:47:34 42° WSW 03:53:45 10° NW
Centaur D-1AR AC-36 4.1 03:47:24 10° WSW 04:13:23 21° E 04:42:44 10° E
Centaur D-1AR AC-36 4.1 03:47:24 10° WSW 04:13:23 21° E 04:42:43 10° E
CZ-4C R/B 4.5 04:31:31 10° N 04:36:24 26° NNE 04:36:24 26° NNE
Cosmos 2297 Rocket 4.4 04:39:41 10° NNW 04:41:24 20° NNW 04:41:24 20° NNW
Cosmos 2237 Rocket 4.4 08:16:42 19° ENE 08:16:42 19° ENE 08:19:01 10° NE
Resurs 1-4 Rocket 4.2 08:28:27 10° N 08:30:10 21° N 08:30:10 21° N
H-2A R/B 4.3 08:46:24 38° SSE 08:46:24 38° SSE 09:05:52 10° ESE
Cosmos 2278 Rocket 4.2 08:48:23 10° N 08:52:56 24° ENE 08:57:28 10° ESE
Cosmos 2219 Rocket 4.3 08:55:50 17° NNW 08:55:50 17° NNW 08:57:31 10° N
SL-16 R/B 4.4 09:03:21 14° SE 09:05:25 17° E 09:08:52 10° ENE
CZ-2C R/B 4.1 09:09:08 10° NE 09:13:31 28° E 09:14:38 25° ESE
BREEZE-M DEB (TANK) 4.1 09:13:45 69° W 09:14:50 81° NW 09:41:08 10° NE
Meteor 1-19 Rocket 4.4 09:20:01 72° NNE 09:20:01 72° NNE 09:25:23 10° N
ADEOS II 3.6 09:15:07 10° N 09:17:38 26° NNW 09:17:38 26° NNW
Cosmos 923 Rocket 4.4 09:23:19 58° NNE 09:23:19 58° NNE 09:27:32 10° NNE
Cosmos 1092 Rocket 3.9 09:24:59 79° SE 09:25:13 80° E 09:31:21 10° N
Cosmos 2026 Rocket 3.8 09:32:11 79° SSW 09:32:38 88° W 09:39:00 10° N
CZ-2D R/B 4.2 09:29:16 10° NNW 09:30:50 16° NW 09:30:50 16° NW
BREEZE-M DEB (TANK) 3.6 09:34:04 59° NW 09:34:14 59° NW 09:37:49 10° NE
Envisat 3.3 09:29:31 10° NNE 09:34:33 61° E 09:34:51 60° ESE
SL-16 R/B 2.7 09:36:56 55° WNW 09:36:56 55° WNW 09:42:05 10° NNW
EO 1 Delta rocket 4.1 09:38:01 10° N 09:41:50 60° N 09:41:50 60° N
Meteor 1-27 Rocket 4.1 09:46:39 48° NW 09:46:39 48° NW 09:51:33 10° N
Meteor 2-4 Rocket 3.8 09:48:37 42° SSE 09:50:21 68° E 09:55:46 10° NNE
CZ-4 R/B 3.9 09:45:50 10° N 09:49:59 62° NNW 09:49:59 62° NNW
Cosmos 1943 Rocket 3.4 09:46:54 10° N 09:52:16 43° ENE 09:57:37 10° SE
Thor Agena Rocket 3.7 09:47:19 10° NNE 09:52:19 66° ESE 09:53:50 43° SSE
Cosmos 1627 Rocket 4.5 09:53:01 56° WSW 09:53:41 59° W 09:59:56 10° N
YAOGAN 6 3.8 09:50:51 10° NNE 09:53:02 36° NE 09:53:02 36° NE
H-2A R/B 4.4 09:52:22 10° NE 09:56:03 20° E 09:59:47 10° SE
Cosmos 2237 Rocket 2.8 09:58:31 39° WNW 09:58:31 39° WNW 10:03:44 10° N
Cosmos 1980 4.4 09:59:54 36° WNW 09:59:54 36° WNW 10:04:56 10° N
NOAA 11 4.1 09:55:01 10° NNE 10:00:30 88° WNW 10:02:18 44° SSW
Cosmos 2112 Rocket 3.9 10:01:07 61° WSW 10:01:49 70° WNW 10:07:10 10° NNE
Cosmos 1340 Rocket 3.3 10:04:12 46° NNW 10:04:12 46° NNW 10:07:05 10° N
ALOS 3.9 10:00:01 10° NNW 10:02:16 21° NW 10:02:16 21° NW
Cosmos 1867 3.5 10:00:43 10° NW 10:06:06 61° WSW 10:11:26 10° SSE
Cosmos 1328 Rocket 3.4 10:08:29 56° S 10:09:25 88° WNW 10:13:51 10° N
ATLAS 2AS CENTAUR R/B 2.8 10:07:19 35° SW 10:10:53 83° WNW 10:18:12 10° NNE
Cosmos 1805 3.0 10:09:35 10° N 10:13:18 86° E 10:13:52 63° SSE
Delta 128 4.0 10:17:14 42° SSW 10:17:24 42° S 10:21:41 10° ESE
Chandra Rocket (1) 2.4 10:18:55 36° S 10:19:03 36° SSE 10:24:10 10° E
IRS-1D 3.5 10:18:34 10° N 10:23:37 64° WNW 10:26:05 30° SW
Cosmos 1633 Rocket 3.1 10:19:36 10° N 10:23:56 77° E 10:28:17 10° S
CSL-04 DEB 4.3 10:19:52 10° N 10:24:02 76° WNW 10:25:35 37° SSW
Cosmos 2266 Rocket 4.2 10:22:05 10° S 10:28:09 68° E 10:34:09 10° NNE
Cosmos 1680 Rocket 4.3 10:28:08 29° W 10:29:01 31° WNW 10:33:43 10° N
ASC 2 Rocket 4.4 10:32:35 25° SSW 10:34:18 32° S 10:39:48 10° ESE
Iridium 51 3.7 10:33:29 28° S 10:35:10 80° W 10:38:31 10° N
Cosmos 2278 Rocket 2.6 10:31:51 10° NW 10:37:04 39° WSW 10:42:15 10° S
NOSS 2-2 (C) 4.3 10:32:54 10° NNW 10:38:07 84° WSW 10:45:38 10° SSE
Cosmos 1461 2.9 10:38:36 10° NW 10:42:13 43° WSW 10:45:50 10° S
USA 308 3.1 10:41:22 32° W 10:42:32 43° NW 10:46:17 10° NNE
Cosmos 1674 3.1 10:39:55 10° S 10:43:15 55° E 10:46:37 10° NNE
Cosmos 1420 Rocket 3.9 10:38:15 10° NNW 10:43:29 72° WSW 10:48:44 10° S
Delta 2 Rocket 4.4 10:40:59 23° SW 10:43:42 44° SSE 10:48:09 10° E
Cosmos 494 Rocket 3.9 10:42:24 17° SSW 10:46:20 66° WNW 10:51:27 10° N
ATLAS 5 CENTAUR R/B 3.2 10:42:33 20° WSW 10:46:50 27° SSW 10:50:45 10° SE
Cosmos 2056 Rocket 3.5 10:42:06 10° NNW 10:47:31 80° WSW 10:52:55 10° SSE
SL-16 R/B 2.4 10:45:14 20° SW 10:48:58 52° WNW 10:54:30 10° N
Sakura Rocket 4.1 10:50:19 19° SSW 10:50:45 19° SSW 10:53:30 10° SSE
CZ-2C R/B 3.5 10:47:08 10° NNW 10:51:31 29° WNW 10:53:57 20° WSW
Cosmos 1626 2.7 10:51:53 27° W 10:52:21 28° W 10:55:14 10° NNW
Cosmos 1766 3.1 10:49:39 10° N 10:53:21 80° E 10:57:01 10° S
Cosmos 1939 Rocket 3.5 10:50:08 10° NNE 10:53:50 52° E 10:57:31 10° S
Cosmos 921 Rocket 4.2 10:53:25 21° W 10:54:36 23° WNW 10:58:02 10° NNW
KORONAS-FOTON 4.0 10:51:44 10° S 10:55:22 70° E 10:59:00 10° NNE
Cosmos 1340 3.0 10:52:21 10° NNW 10:55:30 34° W 10:58:36 10° SSW
Cosmos 1553 Rocket 4.2 10:51:53 10° NNW 10:57:48 46° W 11:03:37 10° SSW
Cosmos 1515 Rocket 3.7 10:54:54 10° SSW 10:59:13 51° W 11:03:33 10° N
Cosmos 1624 Rocket 4.0 10:54:41 10° NNW 10:59:49 61° WSW 11:04:54 10° S
Cosmos 1975 3.8 10:56:56 10° NW 11:00:08 25° W 11:02:30 15° SW
ASTRO E2 3.2 11:00:59 18° SW 11:03:11 39° SSE 11:06:30 10° E
Cosmos 1484 Rocket 2.8 11:05:12 10° N 11:08:40 48° WNW 11:12:06 10° SSW
Cosmos 1470 Rocket 3.8 11:05:52 10° NNW 11:10:06 48° W 11:14:21 10° SSW
CBERS-1 4.2 11:08:41 10° N 11:13:38 53° WNW 11:18:33 10° SSW
ATLAS 5 CENTAUR R/B 3.5 11:08:41 10° NNW 11:13:54 47° ENE 11:20:12 10° SE
H-2A R/B 2.3 11:12:09 10° N 11:15:30 87° WNW 11:18:49 10° SSW
CZ-3 R/B 3.2 11:01:21 12° WSW 11:20:40 51° S 11:27:04 10° E
In-Cosmos 22 4.4 11:18:07 10° S 11:23:27 77° E 11:28:57 10° N
ATLAS 3B R/B 4.5 11:16:45 10° NNW 11:24:01 40° NE 11:31:07 10° ESE
YAOGAN 11 4.1 11:23:41 10° S 11:28:05 66° WSW 11:32:34 10° NNW
Cosmos 1842 4.0 11:26:35 10° SW 11:29:51 29° W 11:33:09 10° NNW
USA 290 2.1 11:27:51 10° NNW 11:30:52 54° WSW 11:33:51 10° S
COSMO-SKYMED 1 3.7 11:26:54 10° SSE 11:31:04 49° ENE 11:35:16 10° N
IRS-1C 4.2 11:28:33 10° NNE 11:33:53 85° WNW 11:39:12 10° SSW
BlueWalker 3 1.8 11:30:09 10° NW 11:33:57 75° SW 11:37:45 10° SE
H-2A R/B 2.6 11:30:51 10° N 11:35:26 37° WNW 11:40:08 10° SW
Cosmos 1943 Rocket 3.3 11:31:31 10° NW 11:35:37 21° W 11:39:42 10° SSW
